Weather History for KHKY - November, 2012

Change the Weather History Date:

Saturday, November 3, 2012

  Actual Average Record
Temperature  
Mean Temperature 54 °F -  
Max Temperature 68 °F 67 °F 83 °F (1974)
Min Temperature 39 °F 44 °F 23 °F (1954)
Degree Days  
Heating Degree Days 12    
Growing Degree Days 4 (Base 50)    
Moisture  
Dew Point 32 °F    
Average Humidity 49    
Maximum Humidity 68    
Minimum Humidity 23    
Precipitation  
Precipitation 0.00 in - - ()
Sea Level Pressure  
Sea Level Pressure 29.99 in    
Wind  
Wind Speed 4 mph (NW)    
Max Wind Speed 8 mph    
Max Gust Speed -    
Visibility 10 miles    
Events      
Averages and records for this station are not official NWS values.
T = Trace of Precipitation, MM = Missing Value Source: NWS Daily Summary

Daily Weather History Graph

Daily Weather History Graph

Search for Another Location

Airport or City:

Trip Planner

Search our weather history database for the weather conditions in past years. The results will help you decide how hot, cold, wet, or windy it might be!

Date:

Astronomy

Nov. 03, 2012 Rise Set
Actual Time 7:50 AM EDT 6:27 PM EDT
Civil Twilight 7:23 AM EDT 6:54 PM EDT
Nautical Twilight 6:53 AM EDT 7:24 PM EDT
Astronomical Twilight 6:23 AM EDT 7:54 PM EDT
Moon 10:10 PM EDT 11:49 AM EDT
Length of Visible Light 11h 30m
Length of Day
10h 37m
Waning Gibbous, 80% of the Moon is Illuminated
Nov 3
Waning Gibbous
Nov 6
Last Quarter
Nov 13
New
Nov 20
First Quarter
Nov 28
Full

Hourly Weather History & Observations

Time (EDT) Temp. Windchill Dew Point Humidity Pressure Visibility Wind Dir Wind Speed Gust Speed Precip Events Conditions
12:53 AM 46.9 °F - 28.9 °F 50% 29.96 in 10.0 mi NW 5.8 mph - N/A   Clear
1:53 AM 48.0 °F - 28.0 °F 46% 29.96 in 10.0 mi NW 5.8 mph - N/A   Clear
2:53 AM 42.1 °F 40.2 °F 30.0 °F 62% 29.98 in 10.0 mi WNW 3.5 mph - N/A   Clear
3:53 AM 44.1 °F 40.8 °F 28.9 °F 55% 29.97 in 10.0 mi WNW 5.8 mph - N/A   Clear
4:53 AM 42.1 °F 40.2 °F 28.0 °F 58% 29.98 in 10.0 mi WNW 3.5 mph - N/A   Clear
5:53 AM 41.0 °F 38.0 °F 28.9 °F 62% 30.00 in 10.0 mi NW 4.6 mph - N/A   Clear
6:53 AM 39.9 °F 37.8 °F 28.9 °F 65% 30.01 in 10.0 mi West 3.5 mph - N/A   Clear
7:53 AM 42.1 °F - 28.0 °F 58% 30.03 in 10.0 mi Calm Calm - N/A   Clear
8:53 AM 42.1 °F - 32.0 °F 67% 30.05 in 10.0 mi Calm Calm - N/A   Clear
9:53 AM 48.0 °F - 30.0 °F 50% 30.06 in 10.0 mi Calm Calm - N/A   Clear
10:53 AM 53.1 °F - 30.9 °F 43% 30.06 in 10.0 mi Variable 4.6 mph - N/A   Clear
11:53 AM 57.9 °F - 32.0 °F 37% 30.04 in 10.0 mi Variable 4.6 mph - N/A   Clear
12:53 PM 61.0 °F - 32.0 °F 34% 30.03 in 10.0 mi Variable 4.6 mph - N/A   Clear
1:53 PM 64.0 °F - 30.0 °F 28% 30.01 in 10.0 mi Calm Calm - N/A   Clear
2:53 PM 66.0 °F - 28.0 °F 24% 29.98 in 10.0 mi Calm Calm - N/A   Clear
3:53 PM 68.0 °F - 28.9 °F 23% 29.97 in 10.0 mi Variable 4.6 mph - N/A   Partly Cloudy
4:53 PM 66.9 °F - 34.0 °F 30% 29.96 in 10.0 mi Calm Calm - N/A   Clear
5:53 PM 64.9 °F - 37.0 °F 36% 29.95 in 10.0 mi Calm Calm - N/A   Clear
6:53 PM 59.0 °F - 37.9 °F 46% 29.96 in 10.0 mi Calm Calm - N/A   Clear
7:53 PM 55.9 °F - 37.0 °F 49% 29.96 in 10.0 mi Calm Calm - N/A   Clear
8:53 PM 55.9 °F - 37.0 °F 49% 29.96 in 10.0 mi South 3.5 mph - N/A   Clear
9:53 PM 53.1 °F - 39.9 °F 61% 29.97 in 10.0 mi NE 3.5 mph - N/A   Clear
10:53 PM 50.0 °F - 39.9 °F 68% 29.97 in 10.0 mi ENE 4.6 mph - N/A   Clear
11:53 PM 48.9 °F - 37.9 °F 66% 29.96 in 10.0 mi NE 8.1 mph - N/A   Scattered Clouds